CAPE
555 617 881 1175 50 68 33 8 0 5 0 0 0 0 0 12 2 78 116 199 117 44 34 231 729 715 692 472 668 598 431 569 744 688 788 1137 599 871 580 454 485 511 591 749 313 1023 1215 1399 1604
817 598 1801 10 19 14 35 24 23 0 0 0 0 0 1 5 10 58 127 194 164 75 38 106 721 902 829 770 590 509 529 745 810 758 665 771 994 656 341 628 536 516 523 102 180 696 1182 1198 1428
1304 1946 645 0 0 4 24 24 9 1 0 0 0 0 2 7 37 94 171 203 196 138 145 350 691 750 563 500 500 585 661 740 725 666 620 622 695 630 653 419 631 562 430 468 690 1005 1075 1075 1038
2580 2224 51 0 0 3 21 32 6 2 0 0 0 0 16 8 16 89 116 185 246 254 221 240 597 502 478 481 526 568 579 625 688 738 584 531 498 746 749 561 660 547 568 532 500 692 710 931 1122
1145 169 0 0 0 1 7 8 20 15 2 0 0 0 3 25 30 103 67 106 179 122 107 228 551 502 559 696 615 589 598 576 477 453 434 447 360 265 332 421 594 647 522 586 620 511 532 666 956
125 22 0 0 0 0 1 7 8 11 22 3 0 18 39 39 138 105 28 12 75 53 21 131 467 484 484 548 543 436 349 314 325 311 338 425 375 316 363 418 440 447 688 494 575 635 478 470 620
20 0 0 0 0 0 0 3 5 8 23 17 2 37 66 31 125 124 54 17 36 35 17 32 56 236 401 332 322 357 378 330 302 348 420 358 486 235 322 726 590 600 599 564 544 631 581 501 436
39 6 22 1 0 0 0 0 0 0 6 17 16 55 67 19 57 92 85 10 0 5 22 16 13 17 45 106 449 359 392 421 459 452 364 586 345 80 246 536 619 473 526 612 475 588 684 676 591
18 13 9 17 0 5 1 0 0 0 0 0 7 3 39 14 22 5 8 4 4 3 0 0 11 28 19 33 278 505 442 615 562 370 394 677 521 323 361 333 698 557 720 539 590 512 402 375 453
12 1 3 31 0 3 0 0 0 0 0 18 0 35 0 1 7 0 1 1 7 10 13 3 1 17 227 243 329 459 291 308 527 487 737 616 409 266 431 279 812 915 487 786 617 511 471 185 93
13 5 10 53 31 19 0 0 0 0 0 0 2 21 0 0 5 15 3 0 6 4 14 14 14 108 267 320 337 509 497 821 562 872 958 910 701 629 439 513 523 450 300 495 442 297 167 138 83
17 10 51 138 123 64 4 0 0 0 0 0 0 59 120 142 111 92 63 51 48 67 137 119 143 377 513 294 441 408 410 420 431 502 736 794 792 1039 794 555 811 819 302 783 577 470 346 351 134
36 39 48 168 125 116 25 28 1 86 0 0 0 17 113 55 35 69 61 74 88 84 102 137 252 564 654 820 546 517 730 574 764 923 1203 943 891 1180 1100 1104 956 870 396 306 466 441 261 219 193
223 162 120 120 184 135 97 77 12 106 13 0 0 0 65 130 104 74 56 51 106 38 19 51 240 480 786 820 920 1080 1252 1361 1308 1323 1431 1138 1044 1449 1306 948 977 814 706 299 137 242 243 234 198
323 267 209 224 179 188 174 126 101 161 101 0 5 19 171 272 124 33 27 13 27 9 0 36 320 509 915 941 1022 1175 1464 1317 1390 1448 1728 1852 1718 1643 1716 1187 1224 1337 1021 804 561 256 250 195 160
435 422 512 288 272 170 184 409 221 187 250 117 41 68 126 70 112 279 188 209 315 276 417 274 320 525 799 946 1108 1339 1626 1710 1580 1600 1825 1792 2055 1554 1123 1331 1091 1209 711 1012 1022 615 440 327 179
355 300 450 525 280 297 241 492 335 238 324 355 246 94 77 33 221 404 389 381 414 679 841 946 878 862 989 1301 1447 1499 1734 1814 1905 1861 1791 2105 1972 2168 1583 1161 1305 1307 1158 1060 1013 1085 635 127 149
334 284 350 428 460 349 414 508 446 318 355 483 483 125 94 22 237 426 521 483 468 525 744 967 1025 1093 1312 1367 1574 1390 1462 1718 1837 1945 1945 2337 1975 1631 2051 1599 1419 1515 1261 1212 1166 1061 176 779 146
124 104 207 272 292 416 524 539 579 407 349 358 444 273 5 26 280 431 509 516 502 531 640 867 1036 1237 1455 1450 1132 1078 1284 1646 1817 1856 2194 2243 1680 1427 1657 1517 1551 1235 1418 1208 1491 1492 342 298 833
0 5 32 103 322 427 521 700 718 553 481 396 343 280 0 25 245 390 430 436 485 545 604 807 1006 1362 1664 1336 1001 999 1205 1567 1814 2164 2047 2005 1624 1595 1285 1874 1265 1338 1079 1506 1598 1591 793 215 959
2 8 0 22 495 492 512 518 696 767 614 557 434 271 11 44 157 264 375 364 373 442 632 760 1090 1254 1658 1336 1342 1422 1314 1803 1848 2131 2114 593 1227 1315 1929 2241 1801 1729 1472 1136 1382 1328 1062 774 706
5 0 0 2 124 384 331 369 709 792 761 669 568 417 207 1 135 195 244 316 330 339 458 721 1015 1341 1715 1716 1338 1052 973 1137 982 1553 1706 1341 1963 2008 1618 2000 2052 1811 1412 1547 1491 1346 976 1042 737
0 0 0 0 0 26 325 314 544 651 830 775 723 565 385 95 50 130 123 164 260 334 427 608 1003 1351 1464 1813 1534 1542 1087 1104 1322 1881 2368 2136 2244 2034 2308 2551 2061 1905 1409 1761 1574 1585 1494 948 936
0 0 0 0 0 0 40 224 219 493 598 688 771 733 524 345 96 109 124 141 259 318 463 554 1019 1454 1619 1920 1815 1847 1292 1421 1621 1598 1905 1703 1687 1761 2203 2737 2596 2271 2028 1845 1800 1730 1781 1371 997
0 0 20 14 15 1 119 202 294 266 300 255 332 704 696 522 319 213 183 228 343 417 510 553 1022 1509 1720 1797 1946 1996 1481 2005 1967 1766 1330 1861 1661 1622 2192 2790 2439 1996 2323 2453 2290 2113 1790 1731 1231
0 0 10 14 0 33 95 60 222 164 50 43 98 408 672 668 514 400 328 276 403 569 663 755 1279 1623 1639 1679 1889 2082 1963 1864 1857 1722 1604 1622 1700 1779 2090 2086 2395 2488 2052 2237 2583 2043 1752 1566 1571
0 0 2 2 0 0 0 39 0 0 18 225 336 361 504 738 622 530 449 312 414 632 757 952 1382 1692 1659 1591 1969 2156 2180 1916 1750 1534 2208 1698 2135 2281 2129 1909 2664 2418 2686 2447 2397 1848 1871 1586 1828
0 0 0 0 0 0 0 0 0 0 0 0 7 431 543 688 707 564 427 257 477 622 782 998 1329 1520 1607 1435 1910 2078 2094 2169 2277 2265 2195 2243 2375 2427 2141 2016 2129 2241 2424 2180 2469 1997 2160 2182 1833
0 0 0 0 5 0 0 0 0 0 0 0 0 427 694 673 729 560 415 357 531 712 892 1082 1300 1434 1617 1487 1702 1807 1949 2083 2323 2089 2207 2651 2596 2276 2082 2091 1615 1672 2021 2061 2096 2321 2328 2463 1972
0 0 0 0 0 0 0 0 0 0 0 0 0 1 780 781 675 528 523 430 547 823 1021 1278 1397 1207 1438 1513 1589 1797 1981 2006 2042 2029 1953 2183 2537 2386 1762 2095 2098 2187 2348 2240 1939 2332 2157 2203 1886
CIN
-185 -136 -62 -21 -12 -2 -3 -11 0 -3 0 0 0 0 0 -53 -11 -7 -8 -1 -1 -4 -18 -3 -4 -6 -5 -23 -8 -9 -11 -5 0 -2 -1 0 -7 0 -3 0 0 0 0 0 -9 0 0 0 0
-141 -146 -19 -14 -4 -2 -1 -6 -6 -2 0 0 0 0 -15 -69 -107 -69 -10 -1 -2 -3 -2 -2 -1 0 0 -1 -4 -23 -6 0 0 0 -2 0 0 -4 -7 -1 -1 -2 -1 -9 -10 -4 0 0 0
-134 -66 -6 0 0 -3 -1 -2 -6 -17 0 0 0 0 -29 -92 -65 -40 -5 -1 -3 -1 -4 -1 0 0 -1 -4 -10 -5 0 0 0 -3 0 0 0 -1 0 -5 -1 0 -3 -1 0 0 0 0 0
-31 -31 -34 0 0 -2 -1 -1 -30 -31 -27 0 0 0 -128 -100 -94 -73 -36 -2 -1 -2 0 -8 -1 -21 0 -14 -7 -6 -6 -1 0 0 0 0 0 0 0 0 0 0 0 -1 0 0 0 0 0
-91 -21 0 0 0 -1 -3 -2 -1 -13 -26 0 0 0 -151 -132 -118 -52 -69 -32 -9 -9 -9 -5 0 -35 -22 -7 -5 -3 -3 -1 -10 -4 -3 -4 -2 0 0 0 0 0 0 0 0 -1 -4 -4 0
-12 -13 0 0 0 0 -1 -2 -2 -12 -37 -82 0 -71 -94 -135 -80 -64 -119 -151 -58 -51 -78 -15 -3 -10 -5 -10 0 -14 -9 -3 -4 -10 -7 -3 -3 -2 -2 0 0 0 0 0 0 0 -2 -14 -6
-4 0 0 0 0 0 0 -172 -65 -19 -27 -31 -69 -38 -102 -153 -96 -85 -132 -216 -145 -114 -122 -70 -35 -5 -34 -5 -7 -10 -5 0 -3 -4 -1 -11 -7 -12 -6 -1 -3 0 0 0 0 0 0 -5 -19
-35 -74 -98 -52 0 0 -132 0 0 0 -23 -85 -67 -81 -130 -219 -193 -142 -168 -228 0 -213 -150 -154 -134 -92 -38 -18 -3 -5 -1 0 0 -4 -10 0 -9 -21 -9 -4 -3 -3 0 0 0 0 0 0 0
-71 -31 -99 -91 0 -208 -88 0 0 0 0 0 -21 -69 -119 -256 -238 -226 -227 -251 -265 -69 0 0 -178 -103 -105 -97 -6 -3 -10 -1 -8 -16 -15 -4 -4 -5 -2 -9 -6 -3 0 0 0 0 -5 -9 -2
-5 -1 -43 -68 0 -190 0 0 0 0 0 -73 0 -100 0 -94 -224 0 -63 -78 -220 -243 -221 -129 -77 -157 -3 -6 -3 -5 -3 -1 -1 0 -1 -6 -13 -13 -1 -5 -3 0 -3 0 0 0 -1 -22 -2
-3 -2 -80 -49 -77 -108 0 0 0 0 0 0 -6 -155 0 0 -221 -212 -179 0 -207 -222 -245 -190 -140 -59 -5 -5 -9 -9 -1 -1 0 0 0 0 -1 -2 -9 -5 0 -1 -8 -1 -2 -1 -1 0 -2
-7 -38 -6 -12 -26 -45 -83 -16 0 0 0 0 -2 -147 -155 -150 -155 -182 -139 -191 -165 -191 -88 -80 -52 -23 -5 -10 -2 -3 0 -5 -2 0 -2 -1 -5 -1 -3 -9 0 0 0 -1 0 -1 0 0 -1
-11 -9 -9 -19 -31 -24 -85 -78 -145 -57 -63 0 0 -201 -154 -172 -188 -154 -160 -179 -198 -167 -141 -90 -61 -28 -10 -8 -1 -1 -1 -2 -1 0 -1 -11 -8 0 -1 0 -1 0 0 -1 -1 -1 -1 0 -1
-13 -6 -24 -27 -28 -39 -46 -45 -130 -77 -167 0 0 0 -169 -151 -166 -177 -184 -191 -204 -225 -239 -156 -71 -47 -24 -15 -10 -1 0 0 -1 -1 0 -5 -21 0 0 -4 -1 0 -1 -1 0 -6 -1 -2 -1
-14 -19 -34 -37 -45 -52 -45 -68 -65 -91 -142 0 -252 -206 -116 -103 -147 -205 -193 -215 -224 -255 0 -200 -68 -36 -27 -11 -9 -2 0 0 -1 -1 -3 0 -16 -7 0 0 -1 0 0 -2 0 -17 -4 -1 -1
-15 -11 -3 -47 -54 -81 -63 -9 -55 -136 -126 -148 -201 -194 -158 -157 -141 -117 -143 -122 -98 -89 -65 -87 -59 -26 -22 -9 -12 -1 0 -1 -1 -1 -4 -12 -9 -20 -14 -2 -2 -6 -21 -5 -2 -3 -3 -5 -2
-22 -2 -2 -27 -56 -77 -69 -10 -55 -132 -132 -135 -154 -183 -189 -209 -110 -68 -67 -76 -68 -32 -12 -10 -14 -2 -2 -9 -2 -1 -1 -2 -1 -1 -1 -5 -17 0 -4 -1 0 -4 -1 -1 -1 -2 -10 -33 -22
-1 -5 -15 -3 -29 -50 -45 -24 -68 -113 -119 -130 -141 -200 -199 -212 -109 -45 -36 -42 -50 -57 -33 -17 -1 -4 -10 -1 -1 -1 -1 0 0 0 -1 -6 -14 -26 -1 0 -1 -5 0 0 -1 -7 -57 -9 -15
-31 -34 -27 -38 -61 -37 -23 -15 -79 -122 -131 -127 -117 -174 -250 -231 -115 -81 -54 -42 -45 -46 -41 -23 -19 -14 -12 -3 -2 -2 -1 -1 -1 0 -23 -7 -24 -30 -14 -1 -6 -7 -3 -2 -2 0 -40 -41 0
0 -51 -27 -46 -73 -68 -21 -22 -35 -129 -127 -118 -126 -163 0 -235 -153 -114 -90 -56 -51 -46 -44 -37 -29 -30 -26 -8 -17 -8 -3 -1 -1 -1 -25 -16 -31 -27 -24 0 -1 -12 -5 -2 0 0 -2 -69 -2
-55 -79 0 -101 -35 -59 -63 -37 -35 -100 -139 -138 -145 -149 -90 -233 -182 -145 -108 -84 -50 -51 -46 -45 -39 -37 -36 -20 -34 -34 -30 -15 -2 -2 -9 -117 -63 -28 -6 -1 -1 -1 -4 -9 -7 -3 -6 -1 -7
-46 0 0 -19 -70 -4 -61 -4 -31 -61 -148 -164 -160 -158 -175 -50 -220 -186 -156 -113 -77 -58 -52 -53 -50 -52 -39 -39 -33 -45 -27 -8 -7 -1 -5 -39 -40 -20 -19 -14 -9 -5 -3 -1 -1 -2 0 -3 -1
0 0 0 0 0 -92 -25 -20 -11 -59 -82 -124 -141 -146 -141 -218 -238 -192 -195 -170 -113 -89 -62 -44 -66 -59 -40 -46 -32 -41 -30 -10 -3 -1 -7 -11 -23 -36 -6 -1 -10 -3 -1 -2 -1 -1 -9 -2 -3
0 0 0 -60 0 0 -30 -31 -6 -22 -34 -46 -101 -125 -147 -160 -216 -207 -201 -175 -132 -114 -84 -65 -68 -80 -59 -58 -48 -44 -31 -2 -1 -1 -3 -4 -5 -14 -20 -1 -4 -7 0 -4 -2 -5 -4 -2 -2
0 0 -67 -63 -53 -2 -47 -29 -7 -12 -40 -54 -48 -97 -139 -168 -184 -187 -190 -172 -149 -129 -105 -88 -70 -98 -85 -64 -48 -40 -38 -15 -4 -4 -4 -2 -3 -3 -11 -10 -13 -21 -11 -1 -1 -6 -5 -6 -8
0 0 -32 -29 0 -7 -63 -30 -8 -46 -75 -108 -101 -72 -138 -164 -173 -158 -159 -160 -152 -116 -111 -72 -84 -93 -88 -70 -46 -41 -36 -13 -2 -4 -2 -3 -2 -2 -11 -10 -7 -8 -7 -19 -8 -4 -6 -7 -7
0 0 -21 -23 -2 0 0 -47 0 0 -23 -58 -75 -104 -111 -151 -166 -164 -150 -164 -139 -108 -85 -66 -81 -94 -88 -62 -55 -48 -34 -19 -2 -4 -2 -3 -2 -1 -12 -5 -11 -8 -12 -12 -13 -6 -13 -5 -3
0 0 0 0 0 0 0 0 0 0 0 0 -4 -106 -107 -154 -160 -150 -146 -160 -121 -100 -67 -61 -83 -82 -70 -58 -62 -47 -38 -29 -17 -15 -15 -3 0 -3 -8 -8 -11 -10 -12 -11 -9 -1 -4 -3 -1
0 0 0 -1 -5 0 0 0 0 0 0 0 0 -78 -90 -127 -145 -129 -134 -130 -98 -93 -71 -66 -73 -56 -61 -55 -43 -49 -45 -31 -26 -20 -16 -9 -3 -4 -4 -2 -12 -21 -19 -13 -16 -7 -2 -3 -8
0 0 0 0 0 0 0 0 0 0 0 0 0 -2 -106 -130 -161 -147 -116 -103 -97 -102 -79 -80 -93 -74 -85 -76 -66 -55 -53 -43 -31 -24 -23 -9 -6 -3 -19 -4 -12 -6 -4 -5 -11 -4 0 -1 -3
Wind_Speed
26 26 23 19 9 13 15 11 12 14 14 6 8 3 7 8 11 6 16 9 33 32 31 32 32 30 30 31 30 30 30 29 28 28 26 24 23 25 26 26 26 25 27 29 30 31 27 21 7
25 24 21 16 13 15 14 17 17 18 11 13 6 5 9 8 6 9 5 27 33 33 32 31 32 30 30 30 30 29 28 28 27 26 25 23 22 24 22 25 26 25 28 30 30 28 25 18 10
22 18 15 10 10 18 17 20 18 17 14 9 8 8 10 6 10 0 12 31 32 34 33 28 31 31 30 30 29 28 26 25 25 25 24 22 21 21 22 19 25 26 29 31 30 29 29 25 10
17 19 19 25 24 24 24 20 22 19 13 12 15 11 4 8 9 8 13 28 35 34 33 32 32 31 29 29 28 26 25 23 23 23 22 21 20 19 20 18 23 26 28 30 29 28 30 27 14
17 17 25 26 27 27 26 24 23 19 11 16 11 12 6 6 15 19 7 28 26 31 32 32 31 30 27 27 26 25 22 22 21 20 18 18 18 19 19 19 19 23 27 28 29 29 30 28 15
20 19 24 24 25 25 26 27 25 21 17 13 17 14 6 10 20 9 15 24 26 27 32 31 28 27 25 24 24 23 21 19 18 17 16 17 17 18 18 19 20 22 24 26 27 28 27 28 24
6 16 24 24 25 25 24 26 25 26 25 17 22 20 12 27 21 8 5 22 25 29 29 29 28 26 24 23 22 21 20 18 17 15 15 15 15 15 17 19 20 22 24 26 26 27 26 25 25
17 23 25 23 22 23 25 27 27 28 27 30 26 15 22 30 25 5 13 21 24 29 28 27 26 26 24 22 21 20 19 18 17 16 15 14 14 15 17 19 21 21 23 25 25 25 25 24 25
19 23 22 21 22 22 25 26 27 26 30 28 24 25 28 33 33 27 9 21 27 26 27 27 26 24 23 22 21 20 19 18 17 16 16 16 15 16 17 18 21 21 23 24 24 24 23 23 23
21 20 19 22 23 24 24 26 26 28 27 27 28 29 32 31 31 27 27 13 28 27 26 26 25 24 23 21 20 20 19 18 17 17 16 14 13 15 16 19 20 21 22 23 23 23 23 23 22
2 22 24 23 22 25 24 25 25 25 24 24 26 29 30 31 30 28 26 25 26 26 26 26 25 23 22 21 20 19 19 18 17 18 16 14 14 13 17 18 20 20 21 22 22 23 24 21 22
22 19 20 22 25 25 24 24 23 22 21 23 24 27 29 30 29 29 28 28 22 27 26 26 23 22 22 21 21 20 19 18 18 17 17 15 14 14 17 18 18 17 20 15 21 22 20 22 22
19 21 23 24 24 24 24 22 21 19 20 22 25 27 27 26 26 25 24 24 25 26 25 25 25 22 22 20 20 20 19 18 18 17 16 14 15 15 16 17 18 15 17 21 21 9 21 21 22
18 15 21 24 24 24 23 21 21 18 20 21 23 25 25 24 23 20 20 20 20 23 23 23 24 23 21 20 20 19 18 17 18 17 17 15 16 12 16 17 17 17 19 19 10 12 9 8 15
19 19 20 20 22 21 21 19 18 20 21 22 23 24 23 22 22 21 19 18 18 20 21 22 20 16 18 19 17 17 16 16 17 16 16 15 14 14 15 17 16 18 19 18 13 13 10 9 7
16 18 18 19 21 20 20 18 19 22 22 22 23 23 23 22 23 21 19 18 17 20 18 19 17 14 13 11 11 13 14 14 14 13 13 13 13 12 17 17 17 16 15 16 15 11 10 19 12
15 13 18 17 19 18 19 17 18 20 21 21 22 22 23 22 23 22 21 20 17 18 17 16 13 10 9 8 9 9 10 11 11 12 11 11 12 12 17 17 15 16 15 13 13 12 13 9 8
14 18 18 15 14 14 13 12 15 19 19 20 21 21 23 23 23 22 21 20 19 18 18 16 12 8 6 6 7 8 9 10 13 12 11 11 11 15 17 16 15 15 14 14 12 12 15 17 12
12 19 18 14 11 11 15 13 10 17 17 18 19 19 21 23 24 23 22 21 20 19 18 17 15 10 9 7 6 7 12 9 12 12 11 13 13 19 18 16 14 14 13 13 12 12 13 16 16
20 17 13 13 13 12 16 12 14 14 15 15 15 17 21 23 25 24 22 21 20 20 19 18 17 14 12 8 6 7 14 16 17 12 14 19 18 18 18 16 15 15 14 13 14 12 12 15 14
25 23 17 18 16 17 17 17 15 14 15 16 18 20 21 23 24 24 24 23 21 19 20 19 17 16 15 11 9 9 7 15 17 16 13 12 19 19 17 16 16 16 15 16 16 17 17 12 15
26 14 18 18 20 18 11 16 10 13 14 14 17 20 20 21 23 24 23 24 22 20 20 19 17 17 17 16 16 15 14 9 11 14 8 11 17 17 17 16 16 16 15 17 18 18 18 17 16
24 18 20 20 23 21 7 21 11 12 13 14 17 19 20 19 21 22 23 23 22 19 19 18 16 18 19 18 18 17 18 12 8 8 7 10 12 15 15 16 16 16 16 17 18 17 17 16 15
18 20 20 22 24 26 17 20 7 10 12 12 13 18 22 21 21 22 22 22 21 17 17 18 16 16 19 18 18 18 16 21 6 7 8 8 8 9 14 16 17 17 17 17 17 17 16 16 15
20 24 25 20 17 22 14 19 18 10 14 18 13 11 19 23 22 21 23 23 21 19 17 17 19 18 18 17 16 16 17 18 19 9 5 11 11 8 11 15 17 16 16 16 16 16 15 14 13
24 31 30 23 24 21 15 17 11 12 20 20 19 10 13 22 22 21 23 22 23 22 21 20 18 17 17 17 15 11 9 11 19 12 24 21 12 7 7 13 17 17 17 15 15 15 14 13 11
18 28 31 34 26 28 30 19 26 18 15 17 20 12 7 19 23 20 20 23 26 23 23 22 18 16 18 18 16 12 9 7 4 4 20 23 19 16 18 15 17 12 12 12 13 13 12 11 10
31 28 26 31 34 30 27 25 26 26 28 28 18 14 6 18 23 21 21 23 24 23 19 19 18 17 17 17 14 12 11 10 6 2 3 22 23 20 16 22 22 19 14 11 10 10 10 10 10
14 24 25 32 33 37 33 29 20 24 24 24 20 16 5 17 22 21 21 22 22 19 18 17 17 13 10 11 11 11 10 12 11 8 1 10 22 20 23 21 22 17 14 13 12 11 9 10 8
29 11 29 33 37 34 37 36 29 28 28 29 24 21 6 13 23 22 21 23 22 18 17 19 17 15 8 3 9 11 8 11 12 11 4 16 20 20 22 22 22 19 16 13 9 7 22 23 4
Wind_Direction
118 123 129 144 341 11 31 14 59 67 74 12 242 345 348 275 250 3 89 76 123 118 117 121 123 108 112 117 117 120 115 111 110 106 113 117 119 106 107 106 105 109 110 112 113 104 89 71 54
122 121 127 146 17 25 28 64 79 84 55 62 15 283 273 309 308 78 77 108 122 124 128 119 125 108 109 113 117 122 116 113 113 113 113 118 123 112 121 111 109 110 105 104 96 86 81 66 57
134 145 147 175 347 24 52 79 79 82 66 47 20 280 264 267 70 23 87 161 120 140 140 103 128 125 117 128 129 128 128 123 115 110 115 121 124 123 120 135 116 111 99 99 94 88 89 81 56
152 135 128 47 40 43 66 78 97 91 57 45 60 28 344 44 41 65 184 172 143 149 141 126 131 133 138 138 132 130 134 131 125 120 122 122 128 129 125 143 122 110 112 112 95 92 96 88 59
156 144 64 54 57 66 63 81 98 87 44 76 43 59 40 300 74 96 117 174 178 162 148 138 142 140 151 144 133 128 151 143 136 133 137 136 134 132 129 139 140 126 117 122 117 112 114 101 60
130 144 63 56 56 69 75 102 107 99 79 53 82 69 5 63 98 98 192 185 180 174 150 143 164 163 160 160 152 149 158 155 152 147 150 144 142 139 137 139 143 136 137 133 125 127 125 125 106
185 30 61 66 68 71 75 105 107 113 109 69 92 80 70 113 102 103 172 191 185 171 167 163 163 171 171 171 167 163 163 166 173 169 163 163 158 152 144 141 144 143 139 135 134 131 130 131 131
156 72 74 64 65 68 87 93 101 111 101 119 106 60 101 120 110 117 201 194 188 168 171 170 168 163 168 167 170 170 166 167 171 181 180 178 171 158 149 142 134 144 138 137 135 132 131 135 149
145 86 58 64 66 86 94 89 113 130 112 127 131 105 111 128 135 123 98 201 184 184 173 166 164 161 162 169 168 167 164 164 163 167 172 186 174 168 153 157 137 141 149 149 138 142 137 151 150
111 43 39 68 69 88 93 99 99 108 114 122 117 109 123 130 139 129 131 199 191 188 187 184 176 166 167 181 184 181 168 168 171 179 177 211 215 198 183 121 152 147 146 148 145 141 150 159 135
319 50 66 71 74 89 90 97 103 110 124 132 125 125 133 138 143 143 135 139 196 194 186 181 170 155 156 160 148 166 167 191 138 178 182 183 206 198 181 179 153 127 134 143 141 149 162 149 164
73 42 49 73 97 96 98 96 104 116 123 133 131 133 134 142 145 145 144 150 151 191 186 174 157 156 160 152 162 169 164 170 180 172 192 202 201 194 163 173 192 219 177 100 151 173 198 171 189
48 63 93 91 98 103 100 101 89 80 111 112 123 133 137 139 143 143 141 137 147 158 161 163 169 152 154 150 151 156 158 139 140 156 190 182 212 184 175 163 168 149 221 172 161 326 163 163 167
55 36 70 101 107 110 109 95 105 76 89 104 120 133 137 140 138 132 136 134 135 144 149 146 159 155 146 139 140 139 141 133 152 158 174 100 118 198 174 156 183 157 182 143 216 286 43 79 125
75 60 69 88 107 104 109 90 111 103 107 110 124 134 135 136 137 138 133 130 128 134 133 139 136 118 126 132 125 127 116 116 130 132 232 251 311 21 220 173 192 159 141 117 80 91 76 73 56
71 104 88 101 117 120 132 39 90 113 115 119 130 136 141 140 141 136 129 127 120 130 127 131 124 111 105 92 82 100 105 95 103 82 35 345 357 76 199 183 146 118 95 107 102 64 356 253 304
109 143 150 99 135 94 125 36 87 116 120 122 134 140 146 144 146 140 137 134 124 130 127 126 113 103 85 74 65 65 28 67 37 24 21 13 28 35 181 168 106 119 104 78 57 38 331 350 73
101 153 178 149 109 121 105 81 90 122 127 130 137 139 149 151 152 148 143 138 133 128 131 131 118 97 64 28 22 359 14 40 319 343 353 29 351 237 181 163 97 105 75 73 52 357 308 292 2
301 244 262 322 31 107 158 142 81 132 136 138 141 140 149 157 156 153 151 147 145 140 139 137 131 102 96 79 49 349 309 10 331 329 354 69 302 220 173 147 105 108 95 81 61 10 344 304 314
249 281 321 340 329 134 194 139 140 136 146 145 140 138 151 153 159 159 155 153 153 153 151 148 143 132 121 84 50 345 288 277 270 315 274 185 169 176 152 149 131 109 104 89 90 54 336 306 336
215 252 296 281 281 173 217 186 152 149 155 157 164 161 155 157 158 159 161 161 158 157 158 155 147 143 135 110 90 80 349 276 265 267 291 112 177 172 162 146 160 139 136 116 116 120 148 307 70
253 289 277 279 259 282 303 271 99 132 148 158 164 167 162 158 160 162 162 165 163 163 162 160 154 151 144 135 129 127 119 84 303 284 359 83 144 153 148 139 143 158 156 144 140 143 159 169 106
270 281 268 268 255 275 14 260 350 73 117 152 168 170 168 159 159 163 164 161 162 158 159 158 153 155 152 145 144 135 144 108 62 13 10 80 91 127 136 138 145 148 156 146 152 137 149 139 152
278 276 276 268 259 256 286 267 351 37 84 96 145 167 172 164 161 160 161 158 159 153 152 152 146 148 153 150 150 146 137 157 352 4 6 25 45 74 118 137 151 147 145 137 143 144 138 161 157
267 264 267 279 286 277 304 277 262 348 353 360 38 145 168 168 163 159 161 159 158 154 147 144 146 146 147 149 146 146 147 152 163 311 36 319 317 1 94 124 138 126 125 126 132 126 124 127 133
260 253 256 269 269 285 290 289 307 320 321 327 358 47 143 165 164 162 161 158 159 151 148 143 139 137 142 147 145 133 125 131 169 136 235 255 312 5 10 111 147 142 139 111 107 122 131 108 104
261 254 254 260 273 272 263 290 281 300 329 337 339 29 96 158 164 160 157 157 158 152 150 146 139 135 141 145 142 137 130 127 86 30 261 240 263 279 263 291 257 138 83 48 83 81 84 81 73
256 262 259 257 259 266 273 276 279 276 285 294 328 352 53 151 160 157 155 156 155 153 147 147 144 139 136 139 136 136 138 140 126 58 78 253 244 258 284 237 233 272 333 22 71 77 76 79 54
259 258 262 262 259 259 265 273 293 286 295 303 322 333 21 147 157 154 154 154 151 144 142 142 144 136 136 139 136 135 136 146 147 139 35 306 257 265 246 253 249 297 327 340 357 154 138 157 134
255 213 256 255 252 261 264 266 282 285 294 290 299 310 350 145 155 155 153 153 150 146 143 143 140 137 122 157 148 151 133 141 150 153 122 284 272 269 254 242 247 283 309 340 44 92 258 293 112